Meteo pe oră la Ipswich

Astăzi, 3 Decembrie, Joi

Timp Temperatura Precipitaţii Vânt Presiune Umiditate
00:00 +3°C° 0 mm 3 m/s 754 mmHg 89%
01:00 +3°C° 0 mm 4 m/s 753 mmHg 88%
02:00 +3°C° 0 mm 4 m/s 752 mmHg 86%
03:00 +3°C° 0 mm 4 m/s 751 mmHg 84%
04:00 +3°C° 0 mm 4 m/s 750 mmHg 84%
05:00 +3°C° 0 mm 4 m/s 749 mmHg 84%
06:00 +3°C° 0 mm 4 m/s 748 mmHg 85%
07:00 +3°C° 0 mm 5 m/s 747 mmHg 84%
08:00 +3°C° 0 mm 5 m/s 746 mmHg 84%
09:00 +3°C° 0 mm 6 m/s 745 mmHg 84%
10:00 +4°C° 0.5 mm 6 m/s 743 mmHg 86%
11:00 +4°C° 0.5 mm 7 m/s 742 mmHg 89%
12:00 +5°C° 0.5 mm 8 m/s 740 mmHg 91%
13:00 +5°C° 1.8 mm 9 m/s 739 mmHg 91%
14:00 +5°C° 1.8 mm 10 m/s 737 mmHg 91%
15:00 +4°C° 1.8 mm 11 m/s 736 mmHg 91%
16:00 +5°C° 1.9 mm 10 m/s 734 mmHg 91%
17:00 +5°C° 1.9 mm 10 m/s 733 mmHg 92%
18:00 +5°C° 1.9 mm 10 m/s 732 mmHg 92%
19:00 +5°C° 1 mm 9 m/s 732 mmHg 91%
20:00 +5°C° 1 mm 7 m/s 731 mmHg 91%
21:00 +5°C° 1 mm 6 m/s 730 mmHg 90%
22:00 +5°C° 0.6 mm 5 m/s 730 mmHg 91%
23:00 +5°C° 0.6 mm 5 m/s 729 mmHg 92%

Mâine, 4 Decembrie, Vineri

Timp Temperatura Precipitaţii Vânt Presiune Umiditate
00:00 +5°C° 0.6 mm 5 m/s 728 mmHg 93%
01:00 +5°C° 1.5 mm 5 m/s 728 mmHg 93%
02:00 +4°C° 1.5 mm 6 m/s 727 mmHg 93%
03:00 +4°C° 1.5 mm 7 m/s 727 mmHg 93%
04:00 +4°C° 0.7 mm 7 m/s 727 mmHg 92%
05:00 +2°C° 0.7 mm 8 m/s 727 mmHg 92%
06:00 +2°C° 0.7 mm 8 m/s 727 mmHg 92%
07:00 +1°C° 0.1 mm 8 m/s 728 mmHg 91%
08:00 +2°C° 0.1 mm 7 m/s 728 mmHg 90%
09:00 +2°C° 0.1 mm 6 m/s 729 mmHg 88%
10:00 +3°C° 0.1 mm 7 m/s 729 mmHg 85%
11:00 +4°C° 0.1 mm 8 m/s 730 mmHg 81%
12:00 +5°C° 0.1 mm 8 m/s 731 mmHg 77%
13:00 +4°C° 0.1 mm 8 m/s 731 mmHg 77%
14:00 +4°C° 0.1 mm 8 m/s 732 mmHg 78%
15:00 +2°C° 0.1 mm 8 m/s 732 mmHg 79%
16:00 +3°C° 0.1 mm 7 m/s 733 mmHg 82%
17:00 +3°C° 0.1 mm 6 m/s 733 mmHg 86%
18:00 +3°C° 0.1 mm 5 m/s 734 mmHg 89%
19:00 +2°C° 0 mm 5 m/s 735 mmHg 90%
20:00 +3°C° 0 mm 4 m/s 735 mmHg 90%
21:00 +1°C° 0 mm 4 m/s 736 mmHg 91%
22:00 +1°C° 0 mm 4 m/s 737 mmHg 89%
23:00 +2°C° 0 mm 3 m/s 737 mmHg 87%

Poimâine, 5 Decembrie, Sâmbătă

Timp Temperatura Precipitaţii Vânt Presiune Umiditate
00:00 +3°C° 0 mm 3 m/s 738 mmHg 86%
01:00 +3°C° 0.1 mm 3 m/s 739 mmHg 86%
02:00 +3°C° 0.1 mm 4 m/s 739 mmHg 85%
03:00 +3°C° 0.1 mm 4 m/s 740 mmHg 85%
04:00 +2°C° 0 mm 5 m/s 740 mmHg 87%
05:00 +2°C° 0 mm 5 m/s 741 mmHg 88%
06:00 +2°C° 0 mm 5 m/s 741 mmHg 89%
07:00 +2°C° 0 mm 5 m/s 742 mmHg 89%
08:00 +2°C° 0 mm 5 m/s 742 mmHg 88%
09:00 +3°C° 0 mm 5 m/s 743 mmHg 87%
10:00 +3°C° 0 mm 5 m/s 743 mmHg 83%
11:00 +5°C° 0 mm 4 m/s 743 mmHg 79%
12:00 +5°C° 0 mm 4 m/s 744 mmHg 75%
13:00 +5°C° 0.1 mm 3 m/s 744 mmHg 77%
14:00 +4°C° 0.1 mm 3 m/s 745 mmHg 79%
15:00 +5°C° 0.1 mm 2 m/s 745 mmHg 82%
16:00 +5°C° 0 mm 2 m/s 745 mmHg 83%
17:00 +5°C° 0 mm 2 m/s 746 mmHg 83%
18:00 +5°C° 0 mm 1 m/s 746 mmHg 84%
19:00 +5°C° 0 mm 1 m/s 746 mmHg 85%
20:00 +4°C° 0 mm 1 m/s 747 mmHg 85%
21:00 +4°C° 0 mm 1 m/s 747 mmHg 86%
22:00 +4°C° 0 mm 1 m/s 747 mmHg 85%
23:00 +4°C° 0 mm 1 m/s 747 mmHg 85%

6 Decembrie, Duminică

Timp Temperatura Precipitaţii Vânt Presiune Umiditate
00:00 +4°C° 0 mm 1 m/s 747 mmHg 84%
01:00 +4°C° 0 mm 1 m/s 747 mmHg 85%
02:00 +3°C° 0 mm 1 m/s 747 mmHg 85%
03:00 +3°C° 0 mm 1 m/s 747 mmHg 86%
04:00 +3°C° 0 mm 1 m/s 748 mmHg 86%
05:00 +3°C° 0 mm 1 m/s 748 mmHg 86%
06:00 +3°C° 0 mm 1 m/s 748 mmHg 87%
07:00 +3°C° 0 mm 1 m/s 748 mmHg 86%
08:00 +4°C° 0 mm 1 m/s 749 mmHg 85%
09:00 +4°C° 0 mm 1 m/s 749 mmHg 84%
10:00 +5°C° 0 mm 1 m/s 749 mmHg 81%
11:00 +6°C° 0 mm 1 m/s 749 mmHg 79%
12:00 +7°C° 0 mm 1 m/s 749 mmHg 76%
13:00 +6°C° 0 mm 1 m/s 750 mmHg 78%
14:00 +6°C° 0 mm 1 m/s 750 mmHg 80%
15:00 +5°C° 0 mm 1 m/s 750 mmHg 83%
16:00 +5°C° 0 mm 1 m/s 750 mmHg 84%
17:00 +4°C° 0 mm 1 m/s 750 mmHg 86%
18:00 +4°C° 0 mm 1 m/s 751 mmHg 87%
19:00 +4°C° 0 mm 1 m/s 751 mmHg 87%
20:00 +3°C° 0 mm 1 m/s 751 mmHg 88%
21:00 +3°C° 0 mm 1 m/s 751 mmHg 88%
22:00 +3°C° 0 mm 1 m/s 751 mmHg 88%
23:00 +3°C° 0 mm 1 m/s 751 mmHg 88%

7 Decembrie, Luni

Timp Temperatura Precipitaţii Vânt Presiune Umiditate
00:00 +3°C° 0 mm 1 m/s 751 mmHg 89%
01:00 +2°C° 0 mm 2 m/s 751 mmHg 89%
02:00 +2°C° 0 mm 2 m/s 751 mmHg 89%
03:00 0°C° 0 mm 3 m/s 750 mmHg 90%
04:00 +1°C° 0 mm 2 m/s 750 mmHg 91%
05:00 +1°C° 0 mm 2 m/s 750 mmHg 92%
06:00 +1°C° 0 mm 2 m/s 750 mmHg 93%
07:00 +1°C° 0 mm 2 m/s 750 mmHg 93%
08:00 +2°C° 0 mm 1 m/s 750 mmHg 94%
09:00 +3°C° 0 mm 1 m/s 750 mmHg 95%
10:00 +3°C° 0 mm 1 m/s 750 mmHg 92%
11:00 +3°C° 0 mm 2 m/s 750 mmHg 89%
12:00 +4°C° 0 mm 2 m/s 750 mmHg 86%
13:00 +4°C° 0 mm 2 m/s 749 mmHg 88%
14:00 +4°C° 0 mm 2 m/s 749 mmHg 89%
15:00 +3°C° 0 mm 2 m/s 749 mmHg 91%
16:00 +3°C° 0 mm 2 m/s 749 mmHg 91%
17:00 +2°C° 0 mm 2 m/s 749 mmHg 92%
18:00 +2°C° 0 mm 2 m/s 749 mmHg 92%
19:00 +2°C° 0 mm 2 m/s 749 mmHg 91%
20:00 +2°C° 0 mm 2 m/s 749 mmHg 90%
21:00 +3°C° 0 mm 2 m/s 749 mmHg 89%
22:00 +3°C° 0 mm 2 m/s 749 mmHg 90%
23:00 +3°C° 0 mm 2 m/s 749 mmHg 90%

8 Decembrie, Marţi

Timp Temperatura Precipitaţii Vânt Presiune Umiditate
00:00 +2°C° 0 mm 3 m/s 750 mmHg 91%
01:00 +2°C° 0 mm 3 m/s 750 mmHg 91%
02:00 +3°C° 0 mm 2 m/s 750 mmHg 91%
03:00 +3°C° 0 mm 2 m/s 750 mmHg 91%
04:00 +3°C° 0 mm 2 m/s 750 mmHg 90%
05:00 +3°C° 0 mm 3 m/s 750 mmHg 88%
06:00 +3°C° 0 mm 3 m/s 751 mmHg 87%
07:00 +3°C° 0 mm 3 m/s 751 mmHg 87%
08:00 +4°C° 0 mm 4 m/s 752 mmHg 86%
09:00 +4°C° 0 mm 4 m/s 752 mmHg 86%
10:00 +4°C° 0 mm 4 m/s 752 mmHg 83%
11:00 +5°C° 0 mm 4 m/s 753 mmHg 81%
12:00 +5°C° 0 mm 3 m/s 753 mmHg 78%
13:00 +5°C° 0 mm 4 m/s 753 mmHg 79%
14:00 +5°C° 0 mm 4 m/s 754 mmHg 80%
15:00 +4°C° 0 mm 4 m/s 754 mmHg 80%
16:00 +4°C° 0 mm 4 m/s 754 mmHg 83%
17:00 +3°C° 0 mm 4 m/s 755 mmHg 85%
18:00 +1°C° 0 mm 4 m/s 755 mmHg 88%
19:00 +2°C° 0 mm 3 m/s 755 mmHg 88%
20:00 +2°C° 0 mm 3 m/s 756 mmHg 87%
21:00 +2°C° 0 mm 3 m/s 756 mmHg 87%
22:00 +2°C° 0 mm 3 m/s 757 mmHg 87%
23:00 +2°C° 0 mm 3 m/s 757 mmHg 87%
Arată mai mult

Formular de consimțământ

Meteoprog și furnizorii noștri de servicii pot stoca și accesa date personale, precum cookies, identificatori de dispozitiv sau alte tehnologii similare pe dispozitivul dumneavoastră și procesa astfel de date pentru a personaliza conținutul și reclamele, dar și pentru a oferi caracteristici de social media și pentru a analiza traficul.

  • Stocarea și/sau accesarea informațiilor pe dispozitivul dumneavoastră

    Cookies, identificatori de dispozitiv sau alte informații pot fi stocate sau accesate pe dispozitiv în scopurile indicate mai sus.

  • Reclame și conținut personalizat, evaluarea reclamelor și a conținutului, informații despre audiențe și dezvoltarea produselor

    Reclamele și conținutul pot fi personalizate pe baza unui profil. Pot fi adăugate date suplimentare pentru a personaliza mai bine reclamele și conținutul. Performanța reclamelor și conținutului poate fi măsurată. Pot fi obținute informații despre utilizatorii care au văzut reclamele și conținutul. Aceste date pot fi utilizate pentru a dezvolta sau îmbunătăți experiența utilizatorilor, sistemele și software-ul.

Dând clic pe ‘Sunt de acord’, permiteți utilizarea cookie-urilor menționate, a identificatorilor de dispozitiv, balizelor web sau altor tehnologii similare. Setările pot fi modificate din browser-ul dispozitivului dumneavoastră.

În anumite scopuri, interesele legitime pot prima asupra consimțământului. Puteți citi mai multe informații în acest sens în Politica privind Confidențialitatea Datelor și Cookie.